Regional Weather Roundup
Issued by NWS Albany, NY

Home | Current Version | Previous Version | Text Only | Print | Product List | Glossary On
Versions: 1 2 3 4 5 6 7 8 9 10 11 12 13 14 15 16 17 18 19 20 21 22 23 24 25 26 27 28
000
ASUS41 KALY 252210
RWRALY

NEW YORK STATE HOURLY WEATHER ROUNDUP
NATIONAL WEATHER SERVICE ALBANY NY
600 PM EDT MON JUL 25 2016

NOTE: "FAIR" INDICATES FEW OR NO CLOUDS BELOW 12,000 FEET WITH NO
SIGNIFICANT WEATHER AND/OR NO OBSTRUCTIONS TO VISIBILITY.

NYZ032-033-038>043-046>054-057>066-NYZ062>081-082-084-252300-
EAST


CITY           SKY/WX    TMP DP  RH WIND       PRES   REMARKS
ALBANY         LGT RAIN  80  73  79 S7        29.82F
GLENS FALLS    CLOUDY    81  70  69 S8        29.78F
POUGHKEEPSIE   TSTM      80  74  81 SW7       29.85R
NEWBURGH       RAIN      77  73  88 NW21G30   29.91R FOG
MONTGOMERY     HVY RAIN  76  74  93 W7G16     29.89R FOG
WHITE PLAINS   LGT RAIN  77  74  90 S8        29.85F FOG
ISLIP          CLOUDY    78  76  93 S7        29.83F
NEW YORK CITY  TSTM      79  76  90 S5        29.86R FOG
CENTRAL PARK   RAIN      76  74  93 W3        29.91R FOG
$$

NYZ005>009-017-018-044>046-055-056-252300-
CENTRAL


CITY           SKY/WX    TMP DP  RH WIND       PRES   REMARKS
FULTON         PTSUNNY   82  72  71 SW8       29.81F
SYRACUSE       CLOUDY    79  69  71 SW9       29.81F
ROME           CLOUDY    79  74  84 W5        29.82F
ELMIRA         CLOUDY    77  70  79 VRB3      29.87F
BINGHAMTON     CLOUDY    69  67  93 S7        29.90R
MONTICELLO     CLOUDY    72  70  94 W3        29.95F
$$

NYZ026>034-041>043-087-252300-
NORTH


CITY           SKY/WX    TMP DP  RH WIND       PRES   REMARKS
WATERTOWN      CLOUDY    78  71  79 SW12      29.78F
FORT DRUM      NOT AVBL
MASSENA        CLOUDY    78  69  73 SW13G21   29.73F
SARANAC LAKE   CLOUDY    73  64  73 SW9       29.83F
PLATTSBURGH    CLOUDY    77  71  82 SE5       29.75F
$$

NYZ001>004-010>016-019>021-085-252300-
WEST


CITY           SKY/WX    TMP DP  RH WIND       PRES   REMARKS
NIAGARA FALLS  CLOUDY    85  69  58 NW10      29.82S
BUFFALO        CLOUDY    78  73  84 SW20G26   29.83F
DUNKIRK        SUNNY     80  72  76 SW17G25   29.88S
JAMESTOWN      SUNNY     79  64  61 W15       29.94S
WELLSVILLE     MOSUNNY   78  69  73 W8        29.95F
ROCHESTER      PTSUNNY   83  73  72 SW12      29.82F
PENN YAN       PTSUNNY   80  72  76 S9        29.86F
$$

             KEY
       WCI = WIND CHILL INDEX
       VSB = VISIBILITY
       HX  = HEAT INDEX
$$




USA.gov is the U.S. government's official web portal to all federal, state and local government web resources and services.